[[{"header":{"parameterUnit":"m.s-1","parameterCategory":1,"la1":30.2991,"la2":30.254,"lo1":-89.0895,"lo2":-89.0444,"dy":0.0017,"dx":0.0017,"nx":28,"ny":28,"refTime":"2024-07-01T03:00:00:Z","depth":0,"parameterNumber":2,"parameterNumberName":"U-component_of_WINDS"},"data":[0,0,0,0,0,0,0,0,0,0,0,0,0,0,0,0,0,0,0,0,0,0,0,0,0,0,0,0,0,0,0,0,0,0,0,0,0,0,0,0,0,0,0,0,0,0,0,0,0,0,0,0,0,0,0,0,0,0,-1.1461,-1.146,0,-1.1397,-1.1396,-1.1395,-1.1346,-1.1345,-1.1345,-1.1344,-1.1275,-1.1274,-1.1272,0,0,0,0,0,0,0,0,0,0,0,0,0,-1.1537,-1.1536,-1.1461,-1.146,-1.1459,-1.1397,-1.1396,-1.1395,-1.1346,-1.1345,-1.1345,-1.1344,-1.1275,-1.1274,-1.1272,0,0,0,0,0,0,0,0,0,0,0,0,0,-1.1492,-1.1536,-1.1461,-1.1427,-1.1423,-1.1397,-1.1396,-1.1395,-1.1346,-1.1345,-1.1345,-1.1344,-1.1276,-1.1274,-1.1272,-1.1273,0,0,-1.1265,-1.1264,0,0,0,0,0,0,0,0,-1.1494,-1.1489,-1.1433,-1.1429,-1.1425,-1.1379,-1.1397,-1.1354,-1.1346,-1.1375,-1.1344,-1.1344,-1.131,-1.1305,-1.1294,-1.1269,-1.1266,-1.1265,-1.1264,-1.1263,-1.1262,0,0,0,0,0,0,0,-1.1497,-1.1491,-1.1435,-1.1432,-1.1427,-1.1414,-1.1407,-1.1389,-1.1347,-1.1373,-1.1369,-1.1362,-1.1307,-1.1296,-1.1292,-1.1265,-1.1265,-1.1263,-1.1262,-1.1261,-1.1238,-1.1238,0,0,0,0,0,0,-1.1506,-1.1494,-1.1437,-1.1433,-1.1459,-1.1413,-1.1405,-1.1394,-1.1347,-1.1339,-1.1363,-1.136,-1.13,-1.1295,-1.129,-1.1287,-1.1263,-1.1261,-1.126,-1.1237,-1.1238,-1.1239,0,0,0,0,0,0,-1.1508,-1.1502,-1.144,-1.1463,-1.1454,-1.1413,-1.1401,-1.1393,-1.1382,-1.134,-1.1332,-1.1359,-1.13,-1.1293,-1.1277,-1.1284,-1.126,-1.1258,-1.1236,-1.1237,-1.1238,-1.1283,0,0,0,0,0,0,-1.151,-1.1503,-1.1503,-1.1463,-1.1453,-1.143,-1.1401,-1.1392,-1.1379,-1.1375,-1.1334,-1.1327,-1.1298,-1.1281,-1.1275,-1.1281,-1.1256,-1.1235,-1.1237,-1.1238,-1.1281,-1.1285,-1.1289,0,0,0,0,0,-1.1513,-1.1517,-1.1503,-1.1497,-1.1453,-1.143,-1.1424,-1.1393,-1.138,-1.1379,-1.1352,-1.1328,-1.1285,-1.128,-1.1273,-1.1278,-1.1235,-1.1236,-1.1238,-1.1279,-1.1284,-1.1289,0,0,0,0,0,0,-1.1558,-1.1511,-1.1495,-1.1487,-1.1463,-1.1422,-1.1421,-1.14,-1.1378,-1.1375,-1.1335,-1.1326,-1.1315,-1.1295,-1.1291,-1.1276,-1.1257,-1.1257,-1.129,-1.1295,-1.1299,-1.1304,-1.1255,0,0,0,0,0,-1.1567,-1.1553,-1.1513,-1.1509,-1.1499,-1.1462,-1.1451,-1.1429,-1.1402,-1.1391,-1.1363,-1.1337,-1.1317,-1.1305,-1.1284,-1.1278,-1.1268,-1.1278,-1.1282,-1.1286,-1.1286,-1.1281,-1.1285,-1.1243,-1.1243,-1.1243,0,0,-1.1584,-1.1558,-1.1551,-1.1518,-1.1497,-1.1483,-1.1454,-1.144,-1.1429,-1.1389,-1.1373,-1.1352,-1.132,-1.1309,-1.1303,-1.1292,-1.1296,-1.1288,-1.1291,-1.1289,-1.1283,-1.1287,-1.129,-1.1244,-1.1244,-1.1244,0,0,-1.161,-1.1589,-1.1583,-1.1563,-1.1533,-1.1508,-1.1507,-1.147,-1.1454,-1.1438,-1.1408,-1.1394,-1.1361,-1.1339,-1.1324,-1.1343,-1.132,-1.1338,-1.136,-1.1355,-1.1359,-1.1361,-1.1368,-1.1371,-1.1338,-1.1338,-1.1338,0,-1.1636,-1.1615,-1.1583,-1.1572,-1.1558,-1.1522,-1.1516,-1.1498,-1.1461,-1.1452,-1.144,-1.1399,-1.1375,-1.1359,-1.1363,-1.1352,-1.1349,-1.1342,-1.1361,-1.1363,-1.1365,-1.1371,-1.1374,-1.1341,-1.134,-1.134,-1.134,0,-1.1648,-1.1634,-1.1633,-1.1601,-1.1587,-1.1578,-1.1544,-1.1533,-1.1513,-1.1489,-1.1473,-1.1444,-1.1417,-1.1411,-1.139,-1.1392,-1.1386,-1.1369,-1.1348,-1.1372,-1.1377,-1.1379,-1.1344,-1.1343,-1.1343,-1.1342,0,0,-1.1699,-1.165,-1.165,-1.1635,-1.1599,-1.1587,-1.1576,-1.1552,-1.1543,-1.1519,-1.1509,-1.1483,-1.1466,-1.1449,-1.1426,-1.1422,-1.1439,-1.1404,-1.1403,-1.1411,-1.1438,-1.1452,-1.1455,-1.1423,-1.1424,-1.1424,-1.1441,0,-1.1718,-1.1699,-1.167,-1.166,-1.1647,-1.1613,-1.1604,-1.158,-1.1559,-1.1543,-1.1518,-1.1501,-1.148,-1.147,-1.1465,-1.1438,-1.1443,-1.1436,-1.1412,-1.1412,-1.1421,-1.1457,-1.1471,-1.1489,-1.1443,-1.1443,-1.1443,0,-1.1738,-1.1718,-1.1707,-1.1673,-1.1666,-1.1659,-1.1634,-1.162,-1.1592,-1.1577,-1.1559,-1.1533,-1.152,-1.1502,-1.1482,-1.1478,-1.1467,-1.1452,-1.1452,-1.1448,-1.1429,-1.1454,-1.1494,-1.1496,-1.1446,-1.1446,-1.1445,0,-1.1776,-1.1746,-1.1736,-1.1724,-1.1684,-1.1679,-1.1662,-1.1634,-1.1621,-1.1599,-1.159,-1.1566,-1.1553,-1.1535,-1.1504,-1.1494,-1.1488,-1.1467,-1.1473,-1.1474,-1.1473,-1.1473,-1.1511,-1.1467,-1.1467,-1.1467,-1.1467,0,-1.1801,-1.1795,-1.1752,-1.1746,-1.1739,-1.1705,-1.1699,-1.1678,-1.1654,-1.1642,-1.1611,-1.1601,-1.1561,-1.1545,-1.152,-1.1508,-1.1502,-1.1488,-1.1482,-1.1491,-1.1493,-1.1482,-1.148,-1.1467,-1.1467,-1.1467,-1.1467,0,-1.1841,-1.1812,-1.1799,-1.1763,-1.1753,-1.1749,-1.1718,-1.171,-1.1687,-1.1672,-1.1667,-1.163,-1.1611,-1.1578,-1.1548,-1.1532,-1.1524,-1.1513,-1.1533,-1.1529,-1.1537,-1.1537,-1.1569,-1.1572,-1.1527,-1.1527,-1.1528,0,-1.1858,-1.1854,-1.1817,-1.1808,-1.1793,-1.1778,-1.1765,-1.1732,-1.172,-1.1689,-1.1684,-1.1663,-1.1643,-1.1613,-1.1583,-1.156,-1.1548,-1.1561,-1.1545,-1.1554,-1.1548,-1.1549,-1.1548,-1.1565,-1.1566,-1.1566,-1.1567,0,-1.1892,-1.1878,-1.1862,-1.1841,-1.1827,-1.1808,-1.1788,-1.1782,-1.1744,-1.1732,-1.1712,-1.1697,-1.1668,-1.1646,-1.162,-1.16,-1.1577,-1.1573,-1.1573,-1.1582,-1.1594,-1.1587,-1.1543,-1.1572,-1.1571,-1.1571,-1.157,-1.157,-1.1921,-1.1915,-1.1889,-1.1872,-1.1854,-1.1836,-1.1827,-1.1803,-1.1787,-1.1761,-1.1743,-1.1724,-1.1697,-1.1659,-1.1641,-1.1626,-1.1615,-1.1615,-1.1615,-1.1616,-1.1619,-1.1597,-1.162,-1.162,-1.162,-1.162,-1.162,0,-1.1952,-1.1935,-1.1919,-1.1893,-1.1879,-1.186,-1.1837,-1.1826,-1.1811,-1.1788,-1.1771,-1.1748,-1.1727,-1.1697,-1.1673,-1.1667,-1.1655,-1.1661,-1.1661,-1.1657,-1.163,-1.1632,-1.1671,-1.1671,-1.1671,-1.1671,-1.1671,-1.1671,-1.1967,-1.1957,-1.1941,-1.1921,-1.1902,-1.1885,-1.1874,-1.1857,-1.1838,-1.1815,-1.1798,-1.1779,-1.1753,-1.1727,-1.1707,-1.1699,-1.1691,-1.1701,-1.1689,-1.1664,-1.1659,-1.1654,-1.1656,-1.1699,-1.1699,-1.1717,-1.1717,-1.1717]},{"header":{"parameterUnit":"m.s-1","parameterCategory":1,"la1":30.2991,"la2":30.254,"lo1":-89.0895,"lo2":-89.0444,"dy":0.0017,"dx":0.0017,"nx":28,"ny":28,"refTime":"2024-07-01T03:00:00:Z","depth":0,"parameterNumber":3,"parameterNumberName":"V-component_of_WINDS"},"data":[0,0,0,0,0,0,0,0,0,0,0,0,0,0,0,0,0,0,0,0,0,0,0,0,0,0,0,0,0,0,0,0,0,0,0,0,0,0,0,0,0,0,0,0,0,0,0,0,0,0,0,0,0,0,0,0,0,0,-3.461,-3.4609,0,-3.4567,-3.4567,-3.4566,-3.4526,-3.4526,-3.4525,-3.4525,-3.4479,-3.4478,-3.4477,0,0,0,0,0,0,0,0,0,0,0,0,0,-3.4655,-3.4655,-3.461,-3.4609,-3.4609,-3.4568,-3.4567,-3.4566,-3.4526,-3.4526,-3.4525,-3.4524,-3.4479,-3.4478,-3.4477,0,0,0,0,0,0,0,0,0,0,0,0,0,-3.4627,-3.4655,-3.461,-3.4584,-3.4581,-3.4568,-3.4567,-3.4566,-3.4526,-3.4526,-3.4525,-3.4524,-3.4479,-3.4478,-3.4477,-3.4485,0,0,-3.4474,-3.4473,0,0,0,0,0,0,0,0,-3.4628,-3.4625,-3.4588,-3.4586,-3.4583,-3.4551,-3.4566,-3.4539,-3.4527,-3.4547,-3.4525,-3.4524,-3.4503,-3.45,-3.4494,-3.4483,-3.4481,-3.4473,-3.4473,-3.4472,-3.4472,0,0,0,0,0,0,0,-3.463,-3.4627,-3.4593,-3.4588,-3.4584,-3.4574,-3.4569,-3.4561,-3.453,-3.4545,-3.4542,-3.4538,-3.4502,-3.4495,-3.4492,-3.448,-3.4474,-3.4472,-3.4472,-3.4471,-3.4476,-3.4477,0,0,0,0,0,0,-3.4637,-3.4628,-3.4594,-3.4592,-3.4604,-3.4574,-3.4568,-3.4562,-3.453,-3.4524,-3.4539,-3.4536,-3.4497,-3.4494,-3.4491,-3.45,-3.4472,-3.4471,-3.4471,-3.4475,-3.4476,-3.4477,0,0,0,0,0,0,-3.4638,-3.4634,-3.4596,-3.4609,-3.4604,-3.4574,-3.4567,-3.4562,-3.4555,-3.4525,-3.4519,-3.4538,-3.4497,-3.4492,-3.4487,-3.4497,-3.4471,-3.447,-3.4475,-3.4476,-3.4477,-3.4517,0,0,0,0,0,0,-3.4639,-3.4635,-3.4637,-3.461,-3.4603,-3.4594,-3.4568,-3.4561,-3.4553,-3.455,-3.4522,-3.4517,-3.4496,-3.4489,-3.4486,-3.4495,-3.4469,-3.4473,-3.4475,-3.4477,-3.4514,-3.4519,-3.4523,0,0,0,0,0,-3.4641,-3.4649,-3.4638,-3.4634,-3.4606,-3.4595,-3.4591,-3.4567,-3.4554,-3.4557,-3.4538,-3.4518,-3.4497,-3.4489,-3.4485,-3.4494,-3.4473,-3.4475,-3.4476,-3.4512,-3.4518,-3.4523,0,0,0,0,0,0,-3.4677,-3.4645,-3.4632,-3.4631,-3.4616,-3.4588,-3.459,-3.4573,-3.456,-3.4558,-3.4528,-3.4522,-3.4521,-3.4507,-3.4499,-3.4501,-3.4482,-3.4483,-3.4511,-3.4516,-3.452,-3.4524,-3.4468,0,0,0,0,0,-3.4685,-3.4679,-3.4651,-3.4653,-3.4647,-3.462,-3.4614,-3.4597,-3.458,-3.4573,-3.4553,-3.4537,-3.4527,-3.452,-3.4509,-3.4512,-3.4506,-3.4516,-3.4521,-3.4525,-3.4526,-3.4529,-3.4533,-3.4483,-3.4483,-3.4483,0,0,-3.4701,-3.4683,-3.4681,-3.466,-3.4646,-3.4641,-3.4615,-3.4609,-3.4605,-3.4571,-3.4567,-3.4552,-3.4532,-3.4532,-3.453,-3.452,-3.4539,-3.4527,-3.453,-3.4529,-3.4531,-3.4536,-3.454,-3.4485,-3.4484,-3.4484,0,0,-3.4728,-3.4714,-3.4715,-3.4702,-3.4683,-3.4665,-3.4666,-3.464,-3.463,-3.4625,-3.4601,-3.4595,-3.4577,-3.4564,-3.4556,-3.4581,-3.4562,-3.4578,-3.4601,-3.4604,-3.4608,-3.4611,-3.4622,-3.4626,-3.4579,-3.458,-3.458,0,-3.4751,-3.4742,-3.4717,-3.4714,-3.4707,-3.4678,-3.468,-3.4668,-3.4645,-3.4641,-3.4629,-3.4609,-3.4593,-3.459,-3.4597,-3.459,-3.4591,-3.4581,-3.4609,-3.4612,-3.4615,-3.4625,-3.4629,-3.4582,-3.4581,-3.4581,-3.4581,0,-3.4771,-3.4766,-3.4769,-3.475,-3.4742,-3.4741,-3.4717,-3.4712,-3.4697,-3.4681,-3.4677,-3.4657,-3.4643,-3.4641,-3.4624,-3.4637,-3.4631,-3.4615,-3.4595,-3.4623,-3.4631,-3.4635,-3.4585,-3.4584,-3.4583,-3.4583,0,0,-3.4819,-3.4788,-3.4789,-3.4781,-3.4758,-3.4753,-3.4752,-3.4739,-3.4736,-3.4722,-3.472,-3.4708,-3.4694,-3.4684,-3.4666,-3.4669,-3.4692,-3.4652,-3.4652,-3.4662,-3.4706,-3.4719,-3.4724,-3.468,-3.468,-3.4681,-3.4708,0,-3.4843,-3.4839,-3.4818,-3.482,-3.4816,-3.479,-3.4788,-3.4774,-3.476,-3.4754,-3.4737,-3.473,-3.4711,-3.4705,-3.4706,-3.4689,-3.4701,-3.4687,-3.4679,-3.4679,-3.4685,-3.4728,-3.4741,-3.4767,-3.4711,-3.4712,-3.4712,0,-3.487,-3.4859,-3.4862,-3.4841,-3.4838,-3.4838,-3.4825,-3.482,-3.4804,-3.4793,-3.4784,-3.4765,-3.4762,-3.4744,-3.4741,-3.4732,-3.4727,-3.4718,-3.4719,-3.4718,-3.4697,-3.4728,-3.4775,-3.478,-3.4717,-3.4717,-3.4716,0,-3.4906,-3.4892,-3.4892,-3.4886,-3.4861,-3.4862,-3.4852,-3.4835,-3.483,-3.4819,-3.4815,-3.4803,-3.4797,-3.4789,-3.4768,-3.4756,-3.4768,-3.4747,-3.4759,-3.476,-3.4763,-3.4763,-3.4811,-3.4759,-3.4759,-3.4759,-3.4759,0,-3.4935,-3.4938,-3.4909,-3.4909,-3.4912,-3.4888,-3.4891,-3.4878,-3.4864,-3.4862,-3.4838,-3.4836,-3.4808,-3.4803,-3.4787,-3.4788,-3.4784,-3.4776,-3.4772,-3.4779,-3.478,-3.4776,-3.4774,-3.476,-3.476,-3.476,-3.4759,0,-3.4976,-3.4956,-3.4955,-3.4933,-3.4927,-3.4931,-3.4912,-3.4911,-3.4896,-3.4893,-3.4891,-3.4868,-3.4861,-3.4839,-3.4826,-3.4815,-3.4822,-3.4813,-3.4828,-3.4825,-3.4839,-3.4839,-3.4886,-3.4892,-3.4836,-3.4837,-3.4837,0,-3.4996,-3.4998,-3.4977,-3.4974,-3.4965,-3.4961,-3.4956,-3.4933,-3.4928,-3.4912,-3.4914,-3.4905,-3.4898,-3.4888,-3.487,-3.4861,-3.4852,-3.4869,-3.485,-3.4858,-3.4854,-3.4854,-3.4855,-3.4873,-3.4874,-3.4875,-3.4875,0,-3.5035,-3.5026,-3.5019,-3.501,-3.5005,-3.4997,-3.4987,-3.4986,-3.496,-3.4956,-3.495,-3.4944,-3.4933,-3.4925,-3.4914,-3.4903,-3.4886,-3.4882,-3.4884,-3.4892,-3.4901,-3.4897,-3.484,-3.488,-3.488,-3.488,-3.4879,-3.4879,-3.5066,-3.5068,-3.5054,-3.5048,-3.5039,-3.5031,-3.503,-3.5016,-3.501,-3.5,-3.4987,-3.4982,-3.4968,-3.4951,-3.4942,-3.4939,-3.4929,-3.4932,-3.4933,-3.4935,-3.4939,-3.4901,-3.4936,-3.4936,-3.4936,-3.4936,-3.4936,0,-3.5105,-3.5095,-3.509,-3.5078,-3.5074,-3.5059,-3.5048,-3.5046,-3.5043,-3.5031,-3.5025,-3.5019,-3.5012,-3.4994,-3.4986,-3.4987,-3.4979,-3.4986,-3.4986,-3.4984,-3.4947,-3.4947,-3.4993,-3.4993,-3.4993,-3.4993,-3.4993,-3.4993,-3.5125,-3.5127,-3.5116,-3.5114,-3.5104,-3.5101,-3.5096,-3.5089,-3.508,-3.5075,-3.507,-3.5058,-3.5045,-3.5036,-3.503,-3.5024,-3.5023,-3.5033,-3.5025,-3.4992,-3.4986,-3.4981,-3.498,-3.5032,-3.5033,-3.5062,-3.5062,-3.5063]}]]